Home   Weather   Montfoort   Past weeks

Flag for Netherlands Past Weather in Montfoort, Netherlands — Yesterday and Last 2 Weeks

Now
63 °F

Passing clouds.


Feels Like: 63 °F
Forecast: 50 / 62 °F
Wind: 5 mph from Southwest

Location: De Bilt

Current Time: Sep 30, 2016 at 7:06:45 PM

Latest Report: Sep 30, 2016 at 6:00 PM


Visibility: 19 mi

Pressure: 29.91 "Hg

Humidity: 54%

Dew Point: 46 °F

Location of MontfoortLocation

Past Weather in Montfoort — Graph

°F

Montfoort Temperature Yesterday

Maximum temperature yesterday: 64 °F (at 12:00 AM)
Minimum temperature yesterday: 59 °F (at 11:00 PM)
Average temperature yesterday: 61 °F

High & Low Weather Summary for the Past Weeks

 TemperatureHumidityPressure
High83 °F (Sep 15, 6:00 PM)100% (Sep 19, 5:00 AM)30.30 "Hg (Sep 19, 5:00 AM)
Low43 °F (Sep 27, 7:00 AM)44% (Sep 15, 5:00 PM)29.79 "Hg (Sep 15, 6:00 PM)
Average60 °F79%30.09 "Hg
* Reported Sep 15 5:00 PM — Sep 30 5:00 PM, Montfoort, Weather by CustomWeather, © 2016

Note: Actual official high and low records may vary slightly from our data, if they occured in-between our weather recording intervals... More about our weather records

Advertising

Montfoort Weather History for the Previous 24 Hours

Scroll right to see more
 ConditionsComfort  
Time TempWeatherWind HumidityBarometerVisibility
5:00 PM
Fri, Sep 30
64 °FPassing clouds.7 mph49%29.91 "Hg19 mi
4:00 PM65 °FPartly sunny.7 mph55%29.93 "Hg18 mi
3:00 PM62 °FPartly sunny.3 mph63%29.92 "Hg19 mi
2:00 PM64 °FPassing clouds.7 mph55%29.93 "Hg14 mi
1:00 PM63 °FOvercast.6 mph67%29.93 "Hg16 mi
12:00 PM61 °FOvercast.6 mph74%29.92 "Hg15 mi
11:00 AM60 °FOvercast.5 mph82%29.91 "Hg11 mi
10:00 AM58 °FOvercast.3 mph88%29.91 "Hg10 mi
9:00 AM57 °FOvercast.3 mph91%29.90 "Hg9 mi
8:00 AM57 °FOvercast.3 mph93%29.90 "Hg9 mi
7:00 AM56 °FOvercast.2 mph92%29.88 "Hg10 mi
6:00 AM56 °FOvercast.2 mph95%29.88 "Hg9 mi
5:00 AM57 °FOvercast.2 mph94%29.89 "Hg9 mi
4:00 AM58 °FRain showers. Overcast.3 mph93%29.88 "Hg10 mi
3:00 AM57 °FOvercast.3 mph94%29.90 "Hg10 mi
2:00 AM57 °FOvercast.2 mph96%29.90 "Hg10 mi
1:00 AM58 °FRain showers. Overcast.3 mph95%29.91 "Hg8 mi
12:00 AM58 °FOvercast.5 mph93%29.91 "Hg14 mi
11:00 PM
Thu, Sep 29
59 °FOvercast.5 mph93%29.91 "Hg12 mi
10:00 PM59 °FOvercast.3 mph94%29.91 "Hg19 mi
9:00 PM60 °FOvercast.5 mph94%29.91 "Hg17 mi
8:00 PM60 °FLow clouds.5 mph94%29.91 "Hg22 mi
7:00 PM59 °FLow clouds.3 mph97%29.90 "Hg14 mi
Weather by CustomWeather, © 2016

See weather overviewHow to use our weather pages